Probability
0 0 0 0 0 0 0 0 0 0 0 0 0 1 3 4 4 4 4 2 1 1 2 6 11 14 15 14 14 14 12 8 3 1 0 0 1 1 1 0 0 0 0 1
0 0 0 0 0 0 0 0 0 0 0 0 0 1 2 2 2 2 2 2 1 1 4 8 13 18 20 18 16 15 15 11 5 2 1 0 1 1 0 0 0 0 0 1
0 0 0 0 0 0 0 0 0 0 0 0 0 2 2 1 0 0 1 1 1 3 6 10 16 22 24 21 18 18 16 11 7 4 3 2 2 2 1 1 1 1 1 1
0 0 0 0 0 0 0 0 0 0 0 0 0 1 1 0 0 0 1 1 3 6 8 11 18 25 28 26 22 20 16 10 6 4 4 5 6 5 3 3 2 2 1 1
0 0 0 0 0 0 0 0 0 0 0 0 0 0 0 0 0 1 3 4 6 8 9 13 19 26 31 31 28 24 20 13 7 6 7 8 8 7 5 5 4 2 2 2
0 0 0 0 0 0 0 0 0 0 0 0 0 0 0 0 1 2 4 7 8 9 11 15 20 27 33 35 32 29 25 19 13 10 11 11 10 8 6 5 5 3 2 1
0 0 0 0 0 0 0 0 0 0 0 0 0 0 0 0 1 2 5 9 11 12 14 17 22 28 35 37 36 34 31 25 19 16 15 14 12 10 8 5 4 3 1 0
0 0 0 0 0 0 0 0 0 0 0 0 0 0 0 0 0 2 7 11 13 13 15 18 23 31 37 39 40 39 36 30 24 21 18 15 12 10 8 5 3 2 1 0
0 0 0 0 0 0 0 0 0 0 0 0 0 0 0 0 0 3 8 11 12 13 15 18 24 31 37 39 41 42 40 33 28 26 22 16 11 9 7 5 4 3 2 1
0 0 0 0 0 0 0 0 0 0 0 0 0 0 0 0 0 2 6 9 11 14 16 19 24 33 38 39 39 40 39 34 30 29 25 19 12 9 7 6 5 4 3 3
0 0 0 0 0 0 0 0 0 0 0 0 0 0 0 0 0 1 3 7 12 16 18 20 25 33 40 41 39 38 35 31 29 28 25 20 14 10 8 6 5 4 3 3
0 0 0 0 0 0 0 0 0 0 0 0 0 0 0 0 0 1 2 6 13 17 19 20 23 30 37 39 37 36 33 29 27 25 21 16 13 11 9 7 5 3 3 3
0 0 0 0 0 0 0 0 0 0 0 0 0 0 0 0 0 2 4 8 13 15 16 18 20 25 32 35 34 33 32 30 27 22 16 11 11 12 11 8 5 4 4 4
0 0 0 0 0 0 0 0 0 0 0 0 0 0 0 0 1 3 5 10 13 13 14 15 16 20 26 29 29 29 29 27 24 19 13 10 10 12 11 9 7 6 6 6
0 0 0 0 0 0 0 0 0 0 0 0 0 0 0 1 3 5 8 12 13 13 15 15 15 16 20 24 25 25 25 23 19 16 11 9 10 11 11 10 8 7 6 6
0 0 0 0 0 0 0 1 0 0 0 0 0 0 1 2 4 7 10 12 12 13 15 16 15 15 16 20 22 23 22 18 15 12 9 8 9 9 10 10 9 7 6 6
0 0 0 0 0 0 0 0 0 0 1 0 0 1 2 4 5 7 9 11 12 13 15 16 15 13 14 17 18 19 18 16 13 10 8 7 8 9 9 9 9 7 6 6
0 0 0 0 0 0 0 0 0 1 3 2 2 4 6 8 9 10 11 12 12 14 16 16 14 12 13 14 15 15 16 15 12 9 8 8 9 9 8 8 8 7 6 5
0 0 0 0 0 0 0 0 0 2 5 5 5 9 12 14 16 15 13 12 11 12 14 13 11 10 12 13 13 13 13 12 10 8 8 8 9 8 7 6 6 5 4 4
0 0 0 0 0 0 0 1 1 2 5 6 8 12 16 16 15 14 12 10 9 8 8 8 7 8 10 11 12 11 10 9 8 8 8 8 7 7 6 5 3 3 3 3
0 0 0 0 0 0 1 2 1 1 3 6 9 13 14 11 9 11 12 11 9 7 4 4 4 5 7 8 8 8 8 7 6 6 6 6 6 5 4 2 1 1 2 2
0 0 0 1 1 1 2 2 1 1 3 7 10 13 13 9 9 12 13 13 10 7 4 2 2 2 3 4 5 6 6 6 6 6 5 4 4 3 2 0 0 0 1 1
0 0 1 3 3 3 3 3 3 4 6 9 12 13 12 12 13 13 12 11 9 6 4 3 2 1 1 2 3 4 5 6 6 6 5 3 3 2 1 0 0 0 0 0
0 0 3 5 5 4 4 5 7 8 9 10 11 11 11 12 12 10 9 7 5 4 3 2 1 0 0 1 2 3 4 6 6 5 4 3 1 1 0 0 0 0 0 0
0 0 2 4 3 3 4 6 9 12 11 10 11 10 9 9 8 7 5 3 2 1 1 1 0 0 0 0 1 2 3 4 5 4 3 2 1 0 0 0 0 0 0 0
0 0 1 2 2 2 3 5 9 13 12 11 11 11 9 7 6 4 2 1 1 1 1 0 0 0 0 0 0 1 1 2 3 2 1 1 0 0 0 0 0 0 0 0
Wind_Speed
4 4 5 7 7 5 4 3 1 3 2 0 3 5 5 7 8 9 10 11 13 14 10 10 11 12 11 10 10 11 10 9 8 6 6 5 5 4 4 4 5 6 6 6
4 4 6 6 5 3 2 1 2 3 2 1 3 4 3 6 10 11 13 14 14 10 9 11 12 12 13 13 13 11 11 11 10 8 6 3 3 3 4 4 5 6 6 7
7 4 6 6 5 4 3 4 3 2 4 4 2 5 2 2 3 4 7 9 10 12 13 13 13 14 13 14 14 12 11 10 10 8 4 3 2 2 2 3 4 6 7 7
4 4 4 5 5 6 4 5 5 2 1 3 1 2 6 3 3 6 8 8 9 10 10 11 12 13 14 14 11 11 11 10 9 9 8 8 6 6 6 4 4 5 6 6
6 5 6 6 7 8 6 3 3 2 3 0 1 2 8 2 4 9 9 10 10 10 11 12 13 13 12 11 10 10 9 9 9 9 9 9 6 5 3 3 5 5 5 6
4 3 6 7 5 7 4 5 6 6 5 1 3 4 7 5 8 7 8 9 9 10 10 10 9 8 7 8 8 9 10 9 9 10 9 9 8 7 5 5 5 5 4 4
2 3 3 4 4 3 5 6 4 3 3 5 3 3 10 8 7 9 9 8 8 8 9 9 9 9 8 9 9 9 10 9 9 10 9 9 9 8 9 7 7 6 4 4
5 5 6 6 8 7 6 10 9 6 5 4 1 5 9 6 5 5 5 4 4 6 7 9 10 10 10 10 9 9 10 9 9 10 9 8 8 6 6 6 6 6 5 5
8 6 4 5 6 11 8 5 7 8 3 0 4 6 8 3 3 2 1 3 4 6 7 8 8 9 9 9 9 9 9 8 8 9 8 7 7 7 6 6 6 5 5 5
9 4 3 2 5 2 7 10 7 7 6 2 3 4 5 5 4 3 2 3 4 4 6 7 7 7 7 7 7 6 7 8 8 7 7 7 7 7 6 5 6 6 5 5
6 4 2 1 5 8 5 5 6 5 6 7 3 8 7 6 5 5 4 4 5 6 6 6 6 5 5 6 6 7 6 6 6 6 6 6 6 6 6 6 6 5 5 5
5 6 2 5 3 4 6 8 9 7 4 5 5 9 5 4 4 4 3 2 3 4 5 5 5 5 5 6 6 6 6 6 5 5 5 6 5 5 5 5 5 5 5 5
7 7 3 4 4 1 3 4 5 7 7 5 5 8 3 1 1 2 2 3 3 4 4 4 5 5 5 5 5 5 5 5 4 5 5 4 4 4 5 4 4 4 4 4
8 6 7 9 7 5 4 4 6 8 6 5 7 7 5 3 3 2 3 3 3 4 4 4 4 4 4 4 4 4 4 4 4 4 4 4 4 4 4 4 3 3 3 3
6 5 4 4 3 4 4 5 7 6 9 9 9 8 9 8 6 4 4 4 5 4 5 5 5 5 4 4 4 4 4 3 4 4 3 3 3 4 4 4 3 3 3 3
4 5 3 1 1 2 2 3 6 5 5 5 4 7 5 2 4 4 4 5 5 5 5 5 6 6 5 4 4 4 4 4 4 5 4 4 4 4 4 4 3 3 3 3
3 5 5 2 1 3 1 4 5 4 4 6 8 7 3 4 6 7 6 6 5 5 4 5 5 5 5 4 5 5 5 5 5 5 5 4 4 4 3 4 4 3 3 3
7 6 4 3 3 3 6 2 3 4 2 4 4 3 5 5 4 3 4 6 6 5 5 5 6 6 5 5 6 6 6 6 6 5 5 5 5 4 4 4 4 3 3 3
5 8 5 4 4 2 3 1 2 4 3 3 4 4 6 7 6 3 1 4 5 6 6 6 6 6 7 7 7 7 7 6 6 5 5 4 4 5 5 5 4 4 5 5
4 5 6 5 5 5 6 2 1 3 3 3 5 7 8 7 4 3 3 5 7 7 7 7 8 8 8 7 7 8 7 6 5 5 5 5 5 5 5 5 5 5 6 6
4 4 4 4 3 5 4 2 2 5 7 3 5 7 8 5 5 6 8 7 7 8 8 8 8 7 6 6 8 8 8 6 5 5 6 6 6 6 6 6 5 6 7 7
4 4 4 4 3 6 2 1 5 5 1 2 4 5 7 7 8 10 10 9 9 9 9 8 8 7 5 6 8 8 7 5 6 7 7 7 7 6 6 6 6 6 7 7
2 4 5 5 6 3 1 2 2 1 2 2 4 6 9 9 9 10 9 9 9 8 8 7 8 8 6 6 6 7 5 5 7 8 8 7 8 7 6 6 6 6 6 5
1 1 2 0 2 2 2 2 1 2 2 2 5 7 8 9 10 10 9 8 8 8 8 7 8 8 6 6 6 6 5 6 8 9 7 7 7 7 7 6 5 5 5 5
2 1 2 0 2 2 3 2 1 3 5 6 6 6 8 10 10 10 9 8 7 7 6 6 7 7 6 6 6 6 6 7 9 8 7 7 7 7 8 8 7 6 6 4
2 4 4 4 4 3 1 2 2 4 5 7 8 8 7 9 10 9 8 7 8 7 7 7 7 7 6 6 6 5 5 6 8 7 7 6 6 6 6 8 9 15 12 14
Wind_Direction
125 108 182 192 178 167 154 147 233 260 271 234 243 256 243 191 186 191 195 197 201 206 192 177 178 179 177 179 181 185 184 179 172 174 180 183 193 191 194 200 201 196 195 191
87 220 204 166 160 150 148 162 277 302 333 247 266 281 256 195 199 199 199 202 205 197 177 178 179 180 183 186 187 188 190 184 183 187 183 176 167 183 192 196 198 199 198 193
163 217 168 152 159 167 190 192 211 256 349 11 43 334 314 253 233 223 216 211 207 198 190 184 183 186 186 190 191 192 192 189 187 178 160 142 127 119 172 195 200 203 200 197
199 225 155 160 181 159 228 216 195 195 63 308 58 282 287 266 256 234 225 213 210 201 192 188 186 187 190 193 187 188 186 186 185 176 176 175 182 190 197 192 197 198 198 200
212 189 170 188 196 165 204 193 169 163 152 333 354 162 281 301 249 243 230 217 211 199 191 190 192 191 190 185 183 183 181 185 182 182 187 188 195 195 177 174 190 199 201 203
207 206 184 194 187 172 156 74 56 51 81 211 228 168 267 237 224 240 231 220 210 196 188 186 187 177 176 175 179 181 182 188 184 185 189 193 194 185 175 186 197 202 200 204
217 243 218 168 132 127 120 97 48 17 29 242 252 189 245 247 238 233 230 220 205 190 178 174 171 173 178 178 181 183 185 190 187 188 193 197 198 191 193 194 198 197 198 205
170 245 219 184 169 165 166 142 155 176 200 259 280 226 251 260 264 257 236 217 188 176 176 177 176 177 181 181 180 184 189 193 190 193 197 198 198 197 200 199 193 198 204 210
167 233 257 207 175 143 139 173 158 127 145 135 281 285 298 284 292 286 216 173 181 177 173 170 170 175 177 180 184 186 189 193 194 195 193 194 197 200 203 198 194 201 207 208
151 198 264 214 109 79 144 145 114 123 141 203 288 279 255 264 260 271 229 190 185 169 163 162 168 178 177 176 173 177 189 194 195 191 192 195 196 200 200 194 198 202 205 206
137 154 296 71 167 164 116 111 113 117 144 150 209 265 233 228 225 223 224 202 175 166 163 163 170 171 159 157 161 172 186 185 185 189 191 191 191 192 190 196 202 203 201 198
143 126 212 256 256 173 151 158 145 145 182 163 165 261 270 229 227 217 213 179 149 148 151 157 152 146 154 161 165 174 185 186 185 183 185 192 185 178 186 197 199 197 198 196
139 122 108 347 347 83 131 151 146 123 119 147 164 259 299 332 194 187 164 151 140 139 133 132 136 151 158 161 167 170 177 181 174 171 175 175 173 170 180 189 185 185 189 188
123 121 157 183 205 183 161 159 148 126 142 180 211 239 275 261 218 184 156 151 140 137 134 135 142 142 137 142 145 149 157 158 154 155 158 163 166 165 167 167 164 169 173 172
115 142 184 208 211 171 179 181 169 165 173 175 216 220 237 223 204 184 159 143 129 135 139 143 143 136 127 128 130 130 124 117 125 129 134 141 136 132 134 140 146 148 147 146
97 144 155 242 249 165 165 196 180 180 174 193 200 240 242 187 144 142 150 146 145 148 148 143 137 133 134 136 130 117 104 100 105 111 112 111 113 119 126 128 126 125 125 122
122 127 131 215 276 89 252 225 188 183 185 173 197 224 169 156 167 169 164 154 153 148 141 135 131 127 124 126 120 110 100 97 99 100 97 99 108 116 125 127 119 122 122 116
139 126 128 138 101 189 242 245 180 167 204 212 220 206 169 164 136 113 138 146 143 135 130 122 114 110 101 98 99 98 98 100 99 98 96 97 104 107 108 111 111 115 114 108
145 132 120 126 144 227 277 244 161 166 248 229 190 149 130 125 90 47 66 126 135 130 125 116 110 110 105 103 105 105 101 99 96 93 90 89 100 105 102 101 102 99 99 92
71 96 115 126 138 200 230 235 229 124 276 240 171 159 153 134 130 204 146 112 111 109 109 110 106 104 105 107 111 107 103 98 92 87 84 82 87 97 97 92 89 89 94 93
76 71 113 138 164 242 247 277 117 159 229 206 169 164 160 162 169 146 130 113 110 107 104 103 100 97 101 109 110 106 101 95 89 87 85 81 81 86 89 88 90 95 95 92
149 139 154 141 157 237 285 121 173 207 206 138 145 147 137 119 113 120 122 119 115 110 103 101 98 91 86 96 106 105 100 96 94 90 86 81 76 79 85 90 87 89 97 96
157 181 172 178 202 248 291 227 258 182 152 155 136 133 128 120 121 119 118 116 112 110 105 102 103 95 81 80 99 108 103 102 98 91 86 84 80 74 74 82 87 85 86 92
316 132 122 80 300 314 324 336 17 89 111 105 120 126 126 124 124 120 117 114 111 109 109 109 107 102 92 83 87 99 102 101 100 96 91 87 86 78 70 66 68 78 82 93
255 122 110 105 279 349 5 8 53 80 90 95 97 107 122 122 122 122 122 120 115 109 104 105 110 109 105 100 95 95 100 106 103 99 96 93 89 89 79 69 56 62 53 74
222 182 166 203 214 177 258 314 80 91 102 112 109 103 110 120 121 118 118 116 114 112 108 106 106 107 107 104 99 96 102 112 112 107 102 101 101 96 95 93 75 57 64 64